"startDT [UTC]","vpos","CH4 [ppm]","stdev(CH4) [ppm]","CO2 [ppm]","stdev(CO2) [ppm]","H2O_reported [%]","stdev(H2O_reported)","CavityPressure [torr]","CavityTemp [C]","OutletValve","CH4_dry [ppm]","CO2_dry [ppm]","DasTemp [C]","EtalonTemp [C]","WarmBoxTemp [C]","MPVPosition","T_ECpre [C]","T_EC1 [C]","T_EC2 [C]","p_inlet [hPa]","p_in [hPa]","p_out [hPa]","T_inlet [C]","RH_inlet [%]","dwpt_inlet [C]","T_vent [C]","RH_vent [%]","dwpt_vent [C]","flow_vent [l min-1]","flow_inlet [l min-1]","dwpt_sample [C]","T_room [C]"
2015-07-12 00:00:00,0.0,2.09922,0.00058,378.668,0.117,1.4902,0.0025,140.003,45.000,32108.79365,2.13161,385.804,37.598,45.066,44.999,0.00,0.10,-272.72,-272.78,-3,660,-12,28.6,29.8,9.2,28.3,29.1,8.6,5.73,1.81,5.7,32.1
2015-07-12 00:01:00,0.0,2.09834,0.00035,378.733,0.101,1.4850,0.0020,139.999,45.000,32107.47516,2.13054,385.830,37.614,45.066,45.000,0.00,0.10,-272.72,-272.78,-4,660,-12,28.6,29.7,9.1,28.3,29.1,8.6,5.73,1.67,5.7,32.1
2015-07-12 00:02:00,0.0,2.09921,0.00049,378.890,0.036,1.4799,0.0020,139.998,45.000,32106.32482,2.13127,385.969,37.623,45.066,45.000,0.00,0.10,-272.72,-272.79,-4,660,-11,28.6,29.6,9.1,28.3,29.1,8.6,5.73,1.60,5.6,32.1
2015-07-12 00:03:00,0.0,2.09875,0.00044,378.814,0.060,1.4775,0.0029,140.004,45.000,32106.23856,2.13079,385.881,37.611,45.066,45.000,0.00,0.10,-272.72,-272.79,-3,660,-12,28.6,29.5,9.1,28.3,29.2,8.6,5.73,1.74,5.7,32.1
2015-07-12 00:04:00,0.0,2.09825,0.00088,378.940,0.042,1.4732,0.0023,139.998,45.000,32105.35315,2.13026,385.985,37.619,45.066,45.000,0.00,0.10,-272.71,-272.78,-4,660,-12,28.6,29.4,9.0,28.3,29.2,8.6,5.73,1.82,5.7,32.1
2015-07-12 00:05:00,0.0,2.09829,0.00058,379.018,0.080,1.4667,0.0032,140.002,45.000,32106.22087,2.12998,386.034,37.613,45.066,45.000,0.00,0.10,-272.72,-272.78,-4,660,-11,28.6,29.3,8.9,28.3,29.2,8.7,5.73,1.68,5.7,32.1
2015-07-12 00:06:00,0.0,2.09916,0.00100,379.071,0.057,1.4580,0.0031,139.996,45.000,32103.60427,2.13069,386.045,37.621,45.066,45.000,0.00,0.10,-272.72,-272.79,-3,660,-11,28.6,29.1,8.8,28.3,29.3,8.7,5.73,1.59,5.7,32.1
2015-07-12 00:07:00,0.0,2.09852,0.00151,379.052,0.067,1.4558,0.0030,140.000,45.000,32107.06130,2.13021,386.015,37.620,45.066,45.000,0.00,0.10,-272.72,-272.78,-3,660,-12,28.6,29.0,8.8,28.3,29.3,8.7,5.73,1.71,5.6,32.1
2015-07-12 00:08:00,0.0,2.09713,0.00052,379.031,0.154,1.4483,0.0016,140.002,45.000,32109.49834,2.12843,385.962,37.620,45.066,45.000,0.00,0.10,-272.72,-272.79,-4,660,-12,28.6,28.8,8.7,28.3,29.3,8.7,5.73,1.82,5.7,32.2
2015-07-12 00:09:00,0.0,2.09861,0.00057,379.193,0.050,1.4361,0.0037,139.996,45.000,32108.10870,2.12965,386.053,37.606,45.066,45.000,0.00,0.10,-272.72,-272.79,-4,660,-12,28.6,28.7,8.6,28.3,29.3,8.7,5.73,1.71,5.6,32.1
2015-07-12 00:10:00,0.0,2.09859,0.00069,379.228,0.034,1.4395,0.0035,140.001,45.000,32108.38151,2.12977,386.110,37.593,45.066,45.000,0.00,0.10,-272.72,-272.78,-3,660,-11,28.6,28.8,8.7,28.3,29.3,8.7,5.73,1.59,5.6,32.1
2015-07-12 00:11:00,0.0,2.09940,0.00052,379.228,0.029,1.4407,0.0017,139.999,45.000,32105.83604,2.13057,386.118,37.574,45.066,45.000,0.00,0.10,-272.71,-272.78,-4,660,-11,28.6,28.8,8.7,28.3,29.3,8.7,5.73,1.69,5.6,32.1
2015-07-12 00:12:00,0.0,2.09845,0.00079,379.058,0.105,1.4427,0.0021,139.999,45.000,32105.81596,2.12971,385.959,37.579,45.067,45.000,0.00,0.10,-272.73,-272.78,-4,660,-11,28.6,28.8,8.7,28.3,29.3,8.7,5.73,1.82,5.6,32.1
2015-07-12 00:13:00,0.0,2.09908,0.00043,379.156,0.040,1.4436,0.0023,140.000,45.000,32107.86114,2.13038,386.056,37.580,45.066,45.000,0.00,0.10,-272.73,-272.78,-3,660,-11,28.6,28.9,8.7,28.3,29.3,8.7,5.73,1.73,5.6,32.1
2015-07-12 00:14:00,0.0,2.09893,0.00043,379.135,0.093,1.4471,0.0023,140.003,45.000,32108.62150,2.13026,386.059,37.576,45.066,45.000,0.00,0.10,-272.71,-272.77,-4,660,-12,28.6,29.0,8.8,28.3,29.3,8.7,5.73,1.60,5.6,32.2
2015-07-12 00:15:00,0.0,2.09942,0.00052,379.141,0.056,1.4496,0.0022,139.998,45.000,32106.51087,2.13081,386.070,37.587,45.066,45.000,0.00,0.10,-272.71,-272.79,-4,660,-11,28.6,29.0,8.8,28.3,29.3,8.7,5.73,1.67,5.6,32.1
2015-07-12 00:16:00,0.0,2.09870,0.00057,379.074,0.097,1.4529,0.0028,140.003,45.000,32108.99452,2.13017,386.024,37.595,45.066,45.000,0.00,0.10,-272.72,-272.79,-3,660,-11,28.6,29.2,8.9,28.2,29.2,8.6,5.73,1.81,5.6,32.1
2015-07-12 00:17:00,0.0,2.09893,0.00073,378.913,0.100,1.4590,0.0023,140.002,45.000,32109.23291,2.13059,385.895,37.609,45.066,45.000,0.00,0.10,-272.72,-272.78,-3,660,-12,28.6,29.3,8.9,28.3,29.2,8.6,5.73,1.76,5.7,32.1
2015-07-12 00:18:00,0.0,2.09659,0.00088,378.798,0.206,1.4623,0.0016,139.997,45.000,32110.45379,2.12824,385.779,37.605,45.066,45.000,0.00,0.10,-272.71,-272.78,-4,660,-12,28.6,29.3,8.9,28.3,29.2,8.6,5.73,1.61,5.7,32.1
2015-07-12 00:19:00,0.0,2.09841,0.00050,379.122,0.055,1.4621,0.0025,140.001,45.000,32110.55729,2.13013,386.122,37.588,45.066,45.000,0.00,0.10,-272.72,-272.79,-4,660,-12,28.6,29.3,9.0,28.3,29.2,8.6,5.73,1.65,5.6,32.1
2015-07-12 00:20:00,0.0,2.09669,0.00065,378.708,0.095,1.4649,0.0025,139.995,45.000,32108.80667,2.12846,385.715,37.602,45.066,45.000,0.00,0.10,-272.72,-272.78,-3,660,-12,28.6,29.4,9.0,28.3,29.1,8.6,5.73,1.80,5.7,32.1
2015-07-12 00:21:00,0.0,2.09618,0.00099,378.765,0.214,1.4700,0.0031,140.003,45.000,32111.10796,2.12792,385.778,37.625,45.066,45.000,0.00,0.10,-272.71,-272.78,-4,660,-11,28.6,29.5,9.0,28.3,29.1,8.6,5.73,1.78,5.6,32.1
2015-07-12 00:22:00,0.0,2.09744,0.00077,379.130,0.065,1.4710,0.0029,140.002,45.000,32109.47765,2.12928,386.169,37.623,45.066,45.000,0.00,0.10,-272.72,-272.79,-4,660,-11,28.6,29.6,9.1,28.3,29.1,8.5,5.73,1.62,5.7,32.1
2015-07-12 00:23:00,0.0,2.09743,0.00041,379.196,0.032,1.4730,0.0022,140.000,45.000,32108.44768,2.12933,386.245,37.621,45.066,45.000,0.00,0.10,-272.72,-272.79,-3,660,-11,28.6,29.6,9.1,28.3,29.0,8.5,5.73,1.62,5.6,32.1
2015-07-12 00:24:00,0.0,2.09840,0.00064,379.147,0.028,1.4750,0.0025,140.003,45.000,32109.07924,2.13029,386.211,37.617,45.066,45.000,0.00,0.10,-272.71,-272.78,-4,660,-11,28.6,29.6,9.1,28.3,29.0,8.5,5.73,1.78,5.6,32.1
2015-07-12 00:25:00,0.0,2.09898,0.00066,379.135,0.046,1.4731,0.0013,139.995,45.000,32108.50259,2.13098,386.186,37.621,45.066,45.000,0.00,0.10,-272.72,-272.78,-4,660,-12,28.6,29.6,9.1,28.3,29.0,8.5,5.73,1.80,5.6,32.0
2015-07-12 00:26:00,0.0,2.09687,0.00086,379.095,0.070,1.4728,0.0020,140.003,45.000,32108.90066,2.12879,386.145,37.620,45.066,45.000,0.00,0.10,-272.72,-272.78,-4,660,-11,28.6,29.5,9.0,28.3,29.0,8.5,5.73,1.65,5.6,32.1
2015-07-12 00:27:00,0.0,2.09678,0.00063,379.099,0.061,1.4715,0.0021,140.002,45.000,32109.22936,2.12866,386.139,37.604,45.066,45.000,0.00,0.10,-272.72,-272.78,-3,660,-11,28.6,29.5,9.0,28.3,29.0,8.5,5.73,1.61,5.6,32.1
2015-07-12 00:28:00,0.0,2.09656,0.00084,379.094,0.055,1.4709,0.0019,140.000,45.000,32106.91211,2.12854,386.134,37.613,45.066,45.000,0.00,0.10,-272.71,-272.78,-4,660,-11,28.6,29.5,9.0,28.3,29.0,8.5,5.73,1.75,5.6,32.1
2015-07-12 00:29:00,0.0,2.09450,0.00193,378.986,0.105,1.4709,0.0018,140.003,45.000,32107.12155,2.12620,386.021,37.583,45.066,45.000,0.00,0.10,-272.72,-272.78,-4,660,-11,28.6,29.5,9.0,28.3,29.0,8.5,5.73,1.81,5.6,32.1
2015-07-12 00:30:00,0.0,2.09815,0.00107,379.131,0.067,1.4660,0.0026,140.000,45.000,32107.16848,2.12984,386.149,37.574,45.066,45.000,0.00,0.10,-272.72,-272.78,-3,660,-11,28.6,29.4,9.0,28.3,29.0,8.5,5.73,1.68,5.6,32.0
2015-07-12 00:31:00,0.0,2.09989,0.00080,379.182,0.050,1.4639,0.0021,140.001,45.000,32106.32453,2.13150,386.183,37.563,45.066,45.000,0.00,0.10,-272.71,-272.78,-4,660,-11,28.6,29.3,9.0,28.3,29.0,8.5,5.73,1.60,5.6,32.0
2015-07-12 00:32:00,0.0,2.10151,0.00046,379.286,0.034,1.4633,0.0019,139.996,45.000,32102.00458,2.13329,386.292,37.572,45.067,45.000,0.00,0.10,-272.72,-272.78,-4,660,-11,28.6,29.3,8.9,28.3,29.0,8.5,5.73,1.71,5.7,32.1
2015-07-12 00:33:00,0.0,2.09896,0.00198,379.225,0.070,1.4628,0.0015,140.004,45.000,32107.07299,2.13088,386.227,37.565,45.067,45.000,0.00,0.10,-272.72,-272.79,-3,660,-11,28.6,29.3,8.9,28.3,29.0,8.5,5.73,1.82,5.6,32.1
2015-07-12 00:34:00,0.0,2.09845,0.00146,379.257,0.034,1.4591,0.0040,139.999,45.000,32106.14201,2.12987,386.237,37.564,45.066,45.000,0.00,0.10,-272.72,-272.78,-3,660,-11,28.5,29.2,8.9,28.3,29.0,8.5,5.73,1.72,5.6,32.1
2015-07-12 00:35:00,0.0,2.09909,0.00181,379.328,0.048,1.4563,0.0028,140.001,45.000,32107.65103,2.13073,386.296,37.562,45.066,45.000,0.00,0.10,-272.72,-272.79,-4,661,-11,28.6,29.1,8.8,28.3,29.0,8.5,5.73,1.60,5.6,32.1
2015-07-12 00:36:00,0.0,2.09944,0.00083,379.450,0.031,1.4515,0.0023,139.998,45.000,32106.79969,2.13077,386.397,37.554,45.066,45.000,0.00,0.10,-272.72,-272.79,-4,661,-11,28.6,29.1,8.8,28.3,29.1,8.5,5.73,1.70,5.6,32.1
2015-07-12 00:37:00,0.0,2.10091,0.00051,379.438,0.027,1.4487,0.0016,140.001,45.000,32106.11783,2.13231,386.373,37.540,45.066,45.000,0.00,0.10,-272.72,-272.78,-3,661,-11,28.6,29.0,8.8,28.3,29.1,8.5,5.73,1.82,5.6,32.1
2015-07-12 00:38:00,0.0,2.10153,0.00080,379.392,0.035,1.4491,0.0016,140.003,45.000,32108.78101,2.13299,386.330,37.526,45.066,45.000,0.00,0.10,-272.72,-272.78,-4,661,-11,28.5,29.1,8.8,28.3,29.1,8.5,5.73,1.73,5.7,32.1
2015-07-12 00:39:00,0.0,2.10021,0.00047,379.365,0.044,1.4514,0.0010,139.999,45.000,32105.76020,2.13173,386.312,37.516,45.066,45.000,0.00,0.10,-272.72,-272.78,-4,661,-11,28.5,29.1,8.8,28.3,29.1,8.6,5.73,1.60,5.7,32.1
2015-07-12 00:40:00,0.0,2.09816,0.00050,379.387,0.048,1.4503,0.0027,139.999,45.000,32106.25290,2.12965,386.324,37.502,45.066,45.000,0.00,0.10,-272.72,-272.78,-3,661,-11,28.5,29.1,8.8,28.3,29.1,8.6,5.73,1.68,5.7,32.1
2015-07-12 00:41:00,0.0,2.09863,0.00073,379.459,0.050,1.4498,0.0023,140.002,45.000,32106.07173,2.12991,386.399,37.500,45.066,45.000,0.00,0.10,-272.72,-272.78,-4,661,-11,28.5,29.0,8.7,28.3,29.1,8.6,5.73,1.82,5.7,32.1
2015-07-12 00:42:00,0.0,2.10112,0.00042,379.439,0.040,1.4474,0.0023,140.001,45.000,32105.83895,2.13243,386.366,37.499,45.066,45.000,0.00,0.10,-272.71,-272.78,-4,661,-11,28.5,29.0,8.8,28.3,29.1,8.6,5.73,1.74,5.6,32.1
2015-07-12 00:43:00,0.0,2.09943,0.00119,379.505,0.094,1.4450,0.0025,140.001,45.000,32104.47369,2.13084,386.419,37.500,45.066,45.000,0.00,0.10,-272.72,-272.79,-3,661,-11,28.5,28.9,8.7,28.3,29.1,8.6,5.73,1.60,5.7,32.0
2015-07-12 00:44:00,0.0,2.09977,0.00095,379.570,0.059,1.4445,0.0024,140.001,45.000,32101.52383,2.13112,386.481,37.502,45.066,45.000,0.00,0.10,-272.71,-272.79,-4,661,-11,28.5,29.0,8.7,28.3,29.1,8.6,5.73,1.66,5.6,32.0
2015-07-12 00:45:00,0.0,2.09808,0.00057,379.586,0.052,1.4475,0.0027,139.994,45.000,32099.17913,2.12941,386.520,37.500,45.066,45.000,0.00,0.10,-272.72,-272.78,-4,661,-11,28.5,29.1,8.8,28.3,29.1,8.5,5.73,1.81,5.7,32.0
2015-07-12 00:46:00,0.0,2.09938,0.00067,379.464,0.038,1.4513,0.0024,139.997,45.000,32101.01426,2.13067,386.414,37.511,45.066,45.000,0.00,0.10,-272.72,-272.79,-3,661,-11,28.5,29.1,8.8,28.3,29.1,8.5,5.73,1.76,5.7,32.0
2015-07-12 00:47:00,0.0,2.09871,0.00093,379.338,0.034,1.4562,0.0023,139.997,45.000,32101.12421,2.13038,386.308,37.502,45.066,45.000,0.00,0.10,-272.72,-272.78,-3,661,-12,28.5,29.3,8.9,28.2,29.1,8.5,5.73,1.61,5.6,32.0
2015-07-12 00:48:00,0.0,2.09941,0.00043,379.295,0.026,1.4590,0.0017,139.998,45.000,32100.94249,2.13096,386.277,37.500,45.066,45.000,0.00,0.10,-272.71,-272.79,-4,660,-12,28.5,29.4,8.9,28.2,29.1,8.5,5.73,1.64,5.7,32.0
2015-07-12 00:49:00,0.0,2.09945,0.00063,379.318,0.042,1.4636,0.0021,140.004,45.000,32101.12051,2.13111,386.323,37.497,45.066,45.000,0.00,0.10,-272.72,-272.79,-4,661,-11,28.5,29.4,8.9,28.3,29.1,8.5,5.73,1.79,5.6,32.0
2015-07-12 00:50:00,0.0,2.10013,0.00066,379.341,0.024,1.4635,0.0017,140.002,45.000,32102.11630,2.13188,386.349,37.486,45.066,45.000,0.00,0.10,-272.73,-272.79,-3,661,-11,28.5,29.4,8.9,28.2,29.0,8.5,5.73,1.79,5.6,32.0
2015-07-12 00:51:00,0.0,2.09766,0.00162,379.254,0.047,1.4647,0.0025,140.001,45.000,32103.51353,2.12954,386.265,37.471,45.066,45.000,0.00,0.10,-272.71,-272.77,-4,661,-11,28.5,29.5,9.0,28.2,29.0,8.5,5.73,1.64,5.7,32.0
2015-07-12 00:52:00,0.0,2.09754,0.00066,379.259,0.030,1.4668,0.0016,140.003,45.000,32105.96663,2.12923,386.281,37.464,45.066,45.000,0.00,0.10,-272.71,-272.78,-4,661,-11,28.5,29.5,9.0,28.2,29.0,8.5,5.73,1.62,5.7,32.0
2015-07-12 00:53:00,0.0,2.09721,0.00076,379.334,0.037,1.4663,0.0021,139.998,45.000,32102.84598,2.12894,386.354,37.481,45.066,45.000,0.00,0.10,-272.72,-272.79,-3,661,-11,28.5,29.5,9.0,28.3,29.0,8.5,5.73,1.77,5.6,32.0
2015-07-12 00:54:00,0.0,2.09839,0.00089,379.308,0.041,1.4652,0.0028,139.999,45.000,32100.74988,2.13012,386.322,37.473,45.066,45.000,0.00,0.10,-272.72,-272.79,-4,661,-12,28.5,29.4,9.0,28.2,29.0,8.5,5.73,1.80,5.7,32.0
2015-07-12 00:55:00,0.0,2.09831,0.00067,379.276,0.019,1.4658,0.0018,139.997,45.000,32095.80646,2.13013,386.292,37.457,45.066,45.000,0.00,0.10,-272.71,-272.77,-4,661,-11,28.5,29.4,9.0,28.2,29.0,8.5,5.73,1.66,5.6,32.1
2015-07-12 00:56:00,0.0,2.09904,0.00127,379.241,0.033,1.4643,0.0024,139.996,45.000,32096.84907,2.13072,386.249,37.449,45.066,45.000,0.00,0.10,-272.72,-272.78,-3,661,-11,28.5,29.4,9.0,28.2,29.0,8.5,5.73,1.60,5.6,32.1
2015-07-12 00:57:00,0.0,2.09913,0.00125,379.243,0.033,1.4671,0.0015,139.999,45.000,32099.21223,2.13097,386.265,37.448,45.066,45.000,0.00,0.10,-272.72,-272.79,-3,661,-11,28.5,29.5,9.0,28.2,29.0,8.5,5.73,1.74,5.6,32.0
2015-07-12 00:58:00,0.0,2.10000,0.00079,379.200,0.041,1.4672,0.0019,139.998,45.000,32100.13902,2.13180,386.224,37.462,45.066,45.000,0.00,0.10,-272.72,-272.78,-4,661,-11,28.5,29.5,9.0,28.2,29.0,8.5,5.73,1.82,5.6,32.0
2015-07-12 00:59:00,0.0,2.09931,0.00094,379.207,0.036,1.4717,0.0018,139.997,45.000,32100.11417,2.13111,386.250,37.493,45.066,45.000,0.00,0.10,-272.72,-272.78,-4,660,-11,28.5,29.6,9.1,28.2,29.0,8.5,5.73,1.70,5.6,32.0
2015-07-12 01:00:00,0.0,2.09968,0.00077,379.154,0.047,1.4741,0.0030,140.004,45.000,32101.04282,2.13173,386.212,37.500,45.066,45.000,0.00,0.10,-272.71,-272.79,-3,661,-11,28.5,29.7,9.1,28.2,29.0,8.5,5.73,1.59,5.6,32.0
2015-07-12 01:01:00,0.0,2.09881,0.00057,379.084,0.040,1.4770,0.0023,140.002,45.000,32102.47732,2.13080,386.157,37.500,45.066,45.000,0.00,0.10,-272.71,-272.79,-4,661,-11,28.5,29.7,9.1,28.2,29.0,8.5,5.73,1.70,5.6,32.0
2015-07-12 01:02:00,0.0,2.09901,0.00092,379.045,0.071,1.4775,0.0025,139.997,45.000,32100.51072,2.13104,386.114,37.500,45.066,45.000,0.00,0.10,-272.71,-272.78,-4,660,-11,28.5,29.7,9.1,28.2,29.1,8.5,5.73,1.82,5.7,31.9
2015-07-12 01:03:00,0.0,2.10060,0.00033,379.082,0.029,1.4785,0.0017,140.002,45.000,32103.22443,2.13262,386.160,37.500,45.066,45.000,0.00,0.10,-272.72,-272.79,-3,660,-11,28.5,29.8,9.1,28.2,29.1,8.5,5.73,1.74,5.6,32.0
2015-07-12 01:04:00,0.0,2.09934,0.00065,378.986,0.055,1.4811,0.0029,140.003,45.000,32103.94014,2.13148,386.074,37.500,45.066,45.000,0.00,0.10,-272.72,-272.77,-3,661,-11,28.5,29.9,9.2,28.2,29.1,8.5,5.73,1.61,5.6,32.0
2015-07-12 01:05:00,0.0,2.09992,0.00066,378.981,0.060,1.4881,0.0037,140.001,45.000,32105.22485,2.13226,386.108,37.500,45.066,45.000,0.00,0.10,-272.72,-272.78,-4,661,-11,28.5,30.1,9.3,28.2,29.1,8.5,5.73,1.66,5.6,32.0
2015-07-12 01:06:00,0.0,2.09763,0.00154,378.753,0.104,1.4935,0.0024,140.000,45.000,32104.76272,2.13026,385.908,37.500,45.066,45.000,0.00,0.10,-272.72,-272.78,-4,660,-11,28.5,30.1,9.3,28.2,29.1,8.5,5.73,1.80,5.6,32.0
2015-07-12 01:07:00,0.0,2.09569,0.00144,378.613,0.097,1.4975,0.0016,139.999,45.000,32101.54840,2.12797,385.769,37.500,45.066,45.000,0.00,0.10,-272.72,-272.79,-3,660,-11,28.5,30.2,9.3,28.2,29.1,8.5,5.73,1.78,5.6,32.0
2015-07-12 01:08:00,0.0,2.09855,0.00085,378.769,0.024,1.5037,0.0024,139.997,45.000,32100.52525,2.13109,385.964,37.500,45.066,45.000,0.00,0.10,-272.71,-272.78,-4,661,-11,28.5,30.4,9.4,28.2,29.1,8.5,5.73,1.63,5.6,32.0
2015-07-12 01:09:00,0.0,2.09907,0.00156,378.772,0.094,1.5058,0.0022,139.999,45.000,32103.19526,2.13166,385.978,37.499,45.066,45.000,0.00,0.10,-272.71,-272.78,-4,661,-11,28.5,30.4,9.4,28.2,29.2,8.5,5.73,1.63,5.6,32.1
2015-07-12 01:10:00,0.0,2.09902,0.00133,378.822,0.047,1.5028,0.0024,140.002,45.000,32104.58703,2.13172,386.018,37.484,45.066,45.000,0.00,0.10,-272.72,-272.79,-3,660,-11,28.5,30.2,9.3,28.2,29.2,8.6,5.73,1.77,5.6,32.0
2015-07-12 01:11:00,0.0,2.09868,0.00088,378.794,0.045,1.5007,0.0023,139.998,45.000,32102.59385,2.13112,385.975,37.483,45.066,45.000,0.00,0.10,-272.72,-272.78,-4,661,-11,28.5,30.2,9.3,28.2,29.2,8.6,5.73,1.80,5.6,32.0
2015-07-12 01:12:00,0.0,2.10023,0.00085,378.896,0.073,1.4983,0.0016,139.997,45.000,32101.41510,2.13276,386.071,37.497,45.066,45.000,0.00,0.10,-272.71,-272.78,-4,661,-11,28.5,30.2,9.3,28.2,29.2,8.6,5.73,1.67,5.6,32.0
2015-07-12 01:13:00,0.0,2.09975,0.00071,378.772,0.069,1.4970,0.0014,139.999,45.000,32103.16157,2.13233,385.943,37.500,45.066,45.000,0.00,0.10,-272.72,-272.79,-4,660,-11,28.5,30.2,9.3,28.2,29.2,8.6,5.73,1.60,5.7,32.0
2015-07-12 01:14:00,0.0,2.09842,0.00057,378.406,0.089,1.4976,0.0021,139.999,45.000,32101.92358,2.13097,385.576,37.513,45.066,45.000,0.00,0.10,-272.72,-272.79,-3,660,-11,28.5,30.2,9.3,28.2,29.3,8.6,5.73,1.72,5.6,32.0
2015-07-12 01:15:00,0.0,2.09779,0.00126,378.439,0.148,1.4961,0.0016,139.997,45.000,32103.51473,2.13030,385.577,37.516,45.066,45.000,0.00,0.10,-272.71,-272.78,-4,661,-11,28.5,30.2,9.3,28.2,29.3,8.6,5.73,1.82,5.6,32.1
2015-07-12 01:16:00,0.0,2.09755,0.00060,378.909,0.035,1.4957,0.0021,140.004,45.000,32104.66230,2.12990,386.065,37.520,45.066,45.000,0.00,0.10,-272.72,-272.78,-4,660,-11,28.5,30.2,9.3,28.2,29.3,8.6,5.73,1.73,5.6,32.0
2015-07-12 01:17:00,0.0,2.09679,0.00134,378.896,0.095,1.4976,0.0020,140.000,45.000,32103.67473,2.12935,386.071,37.508,45.066,45.000,0.00,0.10,-272.72,-272.79,-3,660,-11,28.5,30.2,9.3,28.2,29.4,8.6,5.73,1.61,5.6,32.0
2015-07-12 01:18:00,0.0,2.09405,0.00150,378.511,0.151,1.5036,0.0031,139.998,45.000,32102.90254,2.12673,385.709,37.506,45.066,45.000,0.00,0.10,-272.72,-272.78,-4,661,-11,28.5,30.4,9.4,28.2,29.4,8.6,5.73,1.67,5.6,32.0
2015-07-12 01:19:00,0.0,2.09510,0.00194,378.832,0.088,1.5138,0.0038,139.997,45.000,32102.63552,2.12792,386.071,37.502,45.066,45.000,0.00,0.10,-272.72,-272.78,-4,661,-11,28.5,30.6,9.6,28.2,29.4,8.7,5.73,1.81,5.6,32.0
2015-07-12 01:20:00,0.0,2.09555,0.00178,378.894,0.048,1.5199,0.0015,139.998,45.000,32104.28115,2.12853,386.173,37.500,45.066,45.000,0.00,0.10,-272.72,-272.79,-3,660,-11,28.5,30.7,9.6,28.2,29.4,8.7,5.73,1.77,5.6,32.0
2015-07-12 01:21:00,0.0,2.09384,0.00158,378.960,0.037,1.5188,0.0024,140.003,45.000,32106.67410,2.12669,386.237,37.502,45.066,45.000,0.00,0.10,-272.71,-272.78,-3,661,-11,28.5,30.6,9.5,28.2,29.5,8.7,5.73,1.63,5.6,32.0
2015-07-12 01:22:00,0.0,2.09455,0.00309,378.975,0.098,1.5121,0.0020,139.999,45.000,32105.23944,2.12703,386.217,37.511,45.066,45.000,0.00,0.10,-272.71,-272.78,-4,661,-11,28.5,30.5,9.5,28.2,29.5,8.7,5.73,1.62,5.6,32.1
2015-07-12 01:23:00,0.0,2.09582,0.00167,378.992,0.075,1.5095,0.0022,139.996,45.000,32101.99172,2.12855,386.226,37.505,45.066,45.000,0.00,0.10,-272.72,-272.78,-4,660,-11,28.5,30.5,9.4,28.2,29.5,8.7,5.73,1.76,5.6,32.0
2015-07-12 01:24:00,0.0,2.09577,0.00136,378.861,0.099,1.5057,0.0049,139.999,45.000,32102.07104,2.12844,386.076,37.503,45.066,45.000,0.00,0.10,-272.72,-272.78,-3,660,-11,28.5,30.1,9.3,28.2,29.5,8.7,5.73,1.81,5.6,32.0
2015-07-12 01:25:00,0.0,2.09943,0.00199,379.073,0.112,1.4810,0.0056,140.004,45.000,32101.62884,2.13129,386.158,37.498,45.066,45.000,0.00,0.10,-272.72,-272.78,-4,661,-11,28.5,29.7,9.1,28.2,29.5,8.7,5.73,1.68,5.6,32.0
2015-07-12 01:26:00,0.0,2.10064,0.00210,379.096,0.164,1.4775,0.0039,139.999,45.000,32102.66453,2.13271,386.169,37.493,45.066,45.000,0.00,0.10,-272.72,-272.78,-4,661,-11,28.5,29.8,9.1,28.2,29.6,8.8,5.73,1.60,5.6,32.1
2015-07-12 01:27:00,0.0,2.09845,0.00207,378.765,0.214,1.4871,0.0037,139.999,45.000,32101.20069,2.13090,385.891,37.498,45.066,45.000,0.00,0.10,-272.72,-272.79,-3,660,-11,28.5,30.1,9.3,28.2,29.6,8.8,5.73,1.69,5.6,32.1
2015-07-12 01:28:00,0.0,2.09787,0.00119,378.668,0.123,1.4973,0.0040,140.002,45.000,32101.46033,2.13036,385.832,37.500,45.066,45.000,0.00,0.10,-272.72,-272.79,-3,660,-11,28.5,30.3,9.4,28.2,29.6,8.8,5.73,1.81,5.6,32.1
2015-07-12 01:29:00,0.0,2.09852,0.00179,378.542,0.245,1.5090,0.0035,140.001,45.000,32103.03828,2.13104,385.752,37.500,45.066,45.000,0.00,0.10,-272.72,-272.78,-4,660,-11,28.5,30.6,9.5,28.2,29.6,8.8,5.73,1.74,5.6,32.0
2015-07-12 01:30:00,0.0,2.09966,0.00138,378.567,0.263,1.5179,0.0031,140.001,45.000,32101.77931,2.13270,385.839,37.500,45.066,45.000,0.00,0.10,-272.72,-272.78,-4,660,-11,28.5,30.8,9.6,28.2,29.7,8.8,5.73,1.61,5.6,32.0
2015-07-12 01:31:00,0.0,2.10024,0.00045,378.644,0.066,1.5283,0.0046,140.003,45.000,32102.31334,2.13345,385.963,37.500,45.066,45.000,0.00,0.10,-272.72,-272.78,-3,660,-11,28.5,31.0,9.7,28.2,29.7,8.8,5.73,1.64,5.6,32.0
2015-07-12 01:32:00,0.0,2.09766,0.00259,378.133,0.377,1.5413,0.0044,139.998,45.000,32101.52981,2.13164,385.548,37.500,45.066,45.000,0.00,0.10,-272.72,-272.77,-4,660,-11,28.5,31.3,9.9,28.2,29.7,8.8,5.73,1.78,5.6,32.1
2015-07-12 01:33:00,0.0,2.09553,0.00179,377.706,0.285,1.5521,0.0031,140.003,45.000,32100.72866,2.12895,385.109,37.501,45.066,45.000,0.00,0.10,-272.73,-272.78,-4,660,-11,28.5,31.5,9.9,28.2,29.7,8.8,5.73,1.80,5.6,32.1
2015-07-12 01:34:00,0.0,2.09600,0.00104,377.947,0.180,1.5579,0.0028,140.002,45.000,32101.60542,2.12983,385.399,37.500,45.066,45.000,0.00,0.10,-272.72,-272.79,-4,660,-11,28.5,31.6,10.0,28.2,29.7,8.8,5.73,1.68,5.6,32.0
2015-07-12 01:35:00,0.0,2.09656,0.00083,378.024,0.101,1.5631,0.0025,140.001,45.000,32103.51422,2.13041,385.500,37.500,45.066,45.000,0.00,0.10,-272.71,-272.78,-3,660,-11,28.5,31.7,10.0,28.2,29.8,8.8,5.73,1.60,5.6,32.1
2015-07-12 01:36:00,0.0,2.09745,0.00061,377.986,0.130,1.5702,0.0029,139.999,45.000,32103.44816,2.13162,385.511,37.504,45.066,45.000,0.00,0.10,-272.71,-272.78,-4,660,-11,28.5,31.9,10.1,28.2,29.7,8.8,5.73,1.70,5.6,32.1
2015-07-12 01:37:00,0.0,2.09686,0.00051,377.983,0.081,1.5773,0.0025,140.000,45.000,32102.65021,2.13114,385.531,37.511,45.066,45.000,0.00,0.10,-272.72,-272.78,-4,660,-11,28.5,32.0,10.2,28.2,29.8,8.8,5.73,1.80,5.6,32.0
2015-07-12 01:38:00,0.0,2.09725,0.00042,378.013,0.048,1.5776,0.0017,140.007,45.000,32104.62884,2.13151,385.571,37.535,45.066,45.000,0.00,0.10,-272.71,-272.78,-3,660,-11,28.5,32.1,10.2,28.2,29.8,8.9,5.73,1.75,5.6,32.0
2015-07-12 01:39:00,0.0,2.09688,0.00079,377.892,0.145,1.5877,0.0040,139.998,45.000,32101.55821,2.13151,385.503,37.553,45.066,45.000,0.00,0.10,-272.71,-272.78,-3,660,-11,28.5,32.4,10.4,28.2,29.8,8.9,5.73,1.62,5.6,32.0
2015-07-12 01:40:00,0.0,2.09274,0.00174,377.572,0.152,1.6027,0.0028,140.004,45.000,32100.83957,2.12754,385.238,37.558,45.066,45.000,0.00,0.10,-272.72,-272.79,-4,660,-11,28.5,32.6,10.5,28.2,29.8,8.9,5.73,1.63,5.6,32.1
2015-07-12 01:41:00,0.0,2.09479,0.00038,377.783,0.051,1.6033,0.0026,140.001,45.000,32100.03866,2.12961,385.469,37.560,45.066,45.000,0.00,0.10,-272.72,-272.79,-4,660,-11,28.5,32.5,10.4,28.2,29.9,8.9,5.73,1.76,5.6,32.0
2015-07-12 01:42:00,0.0,2.09313,0.00047,377.376,0.094,1.5854,0.0087,139.998,45.000,32100.10434,2.12765,384.971,37.546,45.066,45.000,0.00,0.10,-272.71,-272.78,-3,660,-11,28.5,31.8,10.1,28.2,29.9,8.9,5.73,1.81,5.6,32.0
2015-07-12 01:43:00,0.0,2.09225,0.00278,377.351,0.387,1.5604,0.0054,140.002,45.000,32102.72321,2.12617,384.812,37.561,45.066,45.000,0.00,0.10,-272.72,-272.78,-4,660,-11,28.5,31.4,9.9,28.2,29.9,8.9,5.73,1.70,5.6,32.1
2015-07-12 01:44:00,0.0,2.09200,0.00053,377.321,0.084,1.5549,0.0022,139.999,45.000,32102.87790,2.12562,384.745,37.561,45.066,45.000,0.00,0.10,-272.72,-272.78,-4,660,-11,28.5,31.4,9.9,28.2,30.0,9.0,5.73,1.61,5.6,32.0
2015-07-12 01:45:00,0.0,2.09369,0.00065,377.545,0.056,1.5540,0.0023,140.001,45.000,32102.06047,2.12730,384.967,37.562,45.066,45.000,0.00,0.10,-272.72,-272.78,-3,660,-11,28.5,31.5,9.9,28.2,30.0,9.0,5.73,1.68,5.6,32.1
2015-07-12 01:46:00,0.0,2.09456,0.00102,377.736,0.112,1.5573,0.0018,140.000,45.000,32100.22717,2.12847,385.192,37.562,45.066,45.000,0.00,0.10,-272.72,-272.78,-3,660,-11,28.5,31.5,9.9,28.2,30.1,9.0,5.73,1.79,5.6,32.1
2015-07-12 01:47:00,0.0,2.09086,0.00105,377.068,0.139,1.5546,0.0021,139.999,45.000,32097.60790,2.12456,384.499,37.534,45.066,45.000,0.00,0.10,-272.72,-272.78,-4,660,-11,28.5,31.4,9.9,28.2,30.2,9.0,5.73,1.78,5.7,32.0